Flag for Nigeria Weather past 2 weeks in Lagos, Nigeria

Now
73 °F

Light rain. Passing clouds.


Feels Like: 70 °F
Forecast: 73 / 84 °F
Wind: 3 mph from West

Location: Lagos / Ikeja

Current Time: Jul 29, 2014 at 6:46:43 AM

Latest Report: Jul 29, 2014 at 6:00 AM


Visibility: 2 mi

Pressure: 29.95 "Hg

Humidity: 94%

Dew point: 72 °F

Location of LagosLocation

Historic Weather in Lagos — Graph

°F

Lagos temperature yesterday

Maximum temperature yesterday: 79 °F (at 11:00 AM)
Minimum temperature yesterday: 73 °F (at 7:00 AM)
Average temperature yesterday: 76 °F

Past Weeks' High & Low Weather Summary

 TemperatureHumidityPressure
High88 °F (Jul 19, 1:00 PM)100% (Jul 15, 1:00 AM)30.07 "Hg (Jul 15, 1:00 AM)
Low73 °F (Jul 16, 6:00 AM)66% (Jul 19, 1:00 PM)29.89 "Hg (Jul 15, 5:00 PM)
Average78 °F92%30.00 "Hg
* Reported Jul 14 4:00 AM — Jul 29 4:00 AM, Lagos, Weather by CustomWeather, © 2014

Note: Actual official high and low records may vary slightly from our data, if they occured in-between our weather recording intervals... More about our weather records

Advertising

Lagos weather history for previous 24 hours

 ConditionsComfort  
Time TempWeatherWind HumidityBarometerVisibility
4:00 AM
Jul 29
73 °FFog.3 mph94%29.92 "Hg2 mi
3:00 AM73 °FFog.No wind100%29.92 "Hg2 mi
2:00 AM73 °FFog.2 mph100%29.95 "Hg2 mi
1:00 AM73 °FPassing clouds.2 mph100%29.95 "Hg4 mi
12:00 AM75 °FPassing clouds.2 mph94%29.98 "Hg5 mi
11:00 PM
Jul 28
75 °FPassing clouds.2 mph94%29.98 "Hg5 mi
10:00 PM75 °FPassing clouds.7 mph94%29.98 "Hg5 mi
9:00 PM75 °FPassing clouds.2 mph100%29.98 "Hg5 mi
8:00 PM75 °FPassing clouds.3 mph100%29.95 "Hg5 mi
7:00 PM77 °FScattered clouds.12 mph94%29.95 "Hg5 mi
4:00 PM77 °FPartly sunny.7 mph94%29.92 "Hg4 mi
3:00 PM77 °FPartly sunny.6 mph94%29.95 "Hg1 mi
1:00 PM79 °FPartly sunny.10 mph94%29.98 "Hg5 mi
12:00 PM77 °FDrizzle. Partly sunny.8 mph94%30.01 "Hg1 mi
11:00 AM79 °FPartly sunny.6 mph94%30.01 "Hg3 mi
10:00 AM75 °FDrizzle. Partly sunny.5 mph100%30.01 "Hg2 mi
9:00 AM75 °FDrizzle. Partly sunny.6 mph94%30.01 "Hg3 mi
8:00 AM75 °FLight rain. Partly sunny.8 mph94%30.01 "Hg2 mi
7:00 AM73 °FLight rain. Partly sunny.No wind94%29.98 "Hg2 mi
Weather by CustomWeather, © 2014

See weather overviewHow to use our weather pages